User: anonymous   Login
Location: Heidgraben
(53.7081°N, 9.6576°E)
Time: 04:52:21
(UTC+00:00)
Language:

Cosmos 2181 Rocket - Orbit

View from above orbital plane
View from above orbital plane
View from above satellite
View from above satellite

Ground track
Ground track

The orbit data is extracted from the following two-line orbital elements,

1 21903U 92012B   20273.41482748 +.00000005 +00000-0 -10864-4 0  9990
2 21903 082.9413 014.6528 0042390 348.8912 078.3752 13.74510631432184
Epoch (UTC): 29 September 2020 09:57:21
Eccentricity: 0.0042390
inclination: 82.9413°
perigee height: 952 km
apogee height: 1014 km
right ascension of ascending node: 14.6528°
argument of perigee: 348.8912°
revolutions per day: 13.74510631
mean anomaly at epoch: 78.3752°
orbit number at epoch: 43218

The dashed part of the orbit path shows where the satellite is in the earth's shadow,  

DLR